Time,TemperatureF,DewpointF,PressureIn,WindDirection,WindDirectionDegrees,WindSpeedMPH,WindSpeedGustMPH,Humidity,HourlyPrecipIn,Conditions,Clouds,dailyrainin,SolarRadiationWatts/m^2,SoftwareType,DateUTC
2013-01-17 00:01:00,42.2,41.1,29.95,WNW,289,0.0,0.0,96,0.00,,,0.50,0,Wunderground v.1.15,2013-01-17 05:01:00,
2013-01-17 00:05:00,42.2,41.1,29.95,WNW,289,0.0,0.0,96,0.00,,,0.00,0,Wunderground v.1.15,2013-01-17 05:05:00,
2013-01-17 00:10:00,42.2,41.1,29.95,WNW,289,0.0,0.0,96,0.00,,,0.00,0,Wunderground v.1.15,2013-01-17 05:10:00,
2013-01-17 00:15:00,42.2,41.1,29.95,WNW,289,0.0,0.0,96,0.00,,,0.00,0,Wunderground v.1.15,2013-01-17 05:15:00,
2013-01-17 00:25:00,42.3,41.2,29.95,WNW,289,0.0,0.0,96,0.00,,,0.00,0,Wunderground v.1.15,2013-01-17 05:25:00,
2013-01-17 00:30:00,42.3,41.2,29.94,WNW,289,0.0,0.0,96,0.00,,,0.00,0,Wunderground v.1.15,2013-01-17 05:30:00,
2013-01-17 00:40:00,42.3,41.2,29.94,WNW,289,0.0,1.0,96,0.00,,,0.00,0,Wunderground v.1.15,2013-01-17 05:40:00,
2013-01-17 00:45:00,42.4,41.3,29.96,WNW,290,0.0,1.0,96,0.00,,,0.00,0,Wunderground v.1.15,2013-01-17 05:45:00,
2013-01-17 00:50:00,42.4,41.3,29.96,WNW,290,0.0,0.0,96,0.00,,,0.00,0,Wunderground v.1.15,2013-01-17 05:50:00,
2013-01-17 01:00:00,42.4,41.3,29.97,WNW,290,0.0,0.0,96,0.00,,,0.00,0,Wunderground v.1.15,2013-01-17 06:00:00,
2013-01-17 01:10:00,42.4,42.4,29.97,WNW,290,0.0,0.0,100,0.00,,,0.00,0,Wunderground v.1.15,2013-01-17 06:10:00,
2013-01-17 01:17:00,42.5,43.0,29.97,WNW,290,0.0,-999.0,100,-99.99,,,0.00,,weatherlink.com 1.10,2013-01-17 06:17:00,
2013-01-17 01:25:00,42.5,42.5,29.97,WNW,290,0.0,0.0,100,0.00,,,0.00,0,Wunderground v.1.15,2013-01-17 06:25:00,
2013-01-17 01:30:00,42.4,42.4,29.97,WNW,290,0.0,0.0,100,0.00,,,0.00,0,Wunderground v.1.15,2013-01-17 06:30:00,
2013-01-17 01:40:00,42.4,41.3,29.97,WNW,290,0.0,0.0,96,0.00,,,0.00,0,Wunderground v.1.15,2013-01-17 06:40:00,
2013-01-17 01:45:00,42.4,41.3,29.97,WNW,290,0.0,0.0,96,0.00,,,0.00,0,Wunderground v.1.15,2013-01-17 06:45:00,
2013-01-17 01:50:00,42.4,42.4,29.97,WNW,290,0.0,0.0,100,0.00,,,0.00,0,Wunderground v.1.15,2013-01-17 06:50:00,
2013-01-17 02:00:00,42.5,41.4,29.97,WNW,290,0.0,0.0,96,0.00,,,0.00,0,Wunderground v.1.15,2013-01-17 07:00:00,
2013-01-17 02:05:00,42.5,41.4,29.97,WNW,290,0.0,0.0,96,0.00,,,0.00,0,Wunderground v.1.15,2013-01-17 07:05:00,
2013-01-17 02:18:00,42.5,42.0,29.98,WNW,290,0.0,-999.0,96,-99.99,,,0.00,,weatherlink.com 1.10,2013-01-17 07:18:00,
2013-01-17 02:25:00,42.5,41.4,29.98,WNW,290,0.0,0.0,96,0.00,,,0.00,0,Wunderground v.1.15,2013-01-17 07:25:00,
2013-01-17 02:30:00,42.6,41.5,29.97,WNW,290,0.0,0.0,96,0.00,,,0.00,0,Wunderground v.1.15,2013-01-17 07:30:00,
2013-01-17 02:35:00,42.6,41.5,29.97,WNW,290,0.0,0.0,96,0.00,,,0.00,0,Wunderground v.1.15,2013-01-17 07:35:00,
2013-01-17 02:40:00,42.6,41.5,29.97,WNW,290,0.0,0.0,96,0.00,,,0.00,0,Wunderground v.1.15,2013-01-17 07:40:00,
2013-01-17 02:45:00,42.6,41.5,29.98,WNW,290,0.0,0.0,96,0.00,,,0.00,0,Wunderground v.1.15,2013-01-17 07:45:00,
2013-01-17 02:50:00,42.6,41.5,29.98,WNW,290,0.0,0.0,96,0.00,,,0.00,0,Wunderground v.1.15,2013-01-17 07:50:00,
2013-01-17 02:55:00,42.6,41.5,29.98,WNW,290,0.0,1.0,96,0.00,,,0.00,0,Wunderground v.1.15,2013-01-17 07:55:00,
2013-01-17 03:00:00,42.6,41.5,29.99,WNW,289,3.0,3.0,96,0.00,,,0.01,0,Wunderground v.1.15,2013-01-17 08:00:00,
2013-01-17 03:05:00,42.5,41.4,29.99,WNW,289,3.0,5.0,96,0.00,,,0.01,0,Wunderground v.1.15,2013-01-17 08:05:00,
2013-01-17 03:10:00,42.5,41.4,29.99,WNW,289,0.0,2.0,96,0.00,,,0.01,0,Wunderground v.1.15,2013-01-17 08:10:00,
2013-01-17 03:15:00,42.5,41.4,29.98,WNW,289,0.0,2.0,96,0.00,,,0.01,0,Wunderground v.1.15,2013-01-17 08:15:00,
2013-01-17 03:20:00,42.5,41.4,29.98,WNW,289,0.0,0.0,96,0.00,,,0.02,0,Wunderground v.1.15,2013-01-17 08:20:00,
2013-01-17 03:25:00,42.5,41.4,29.98,WNW,289,0.0,0.0,96,0.00,,,0.02,0,Wunderground v.1.15,2013-01-17 08:25:00,
2013-01-17 03:30:00,42.5,41.4,29.99,WNW,289,0.0,2.0,96,0.00,,,0.02,0,Wunderground v.1.15,2013-01-17 08:30:00,
2013-01-17 03:35:00,42.5,41.4,29.99,WNW,289,2.0,2.0,96,0.00,,,0.02,0,Wunderground v.1.15,2013-01-17 08:35:00,
2013-01-17 03:40:00,42.5,41.4,29.99,WNW,289,4.0,5.0,96,0.00,,,0.02,0,Wunderground v.1.15,2013-01-17 08:40:00,
2013-01-17 03:45:00,42.5,41.4,29.98,WNW,289,0.0,5.0,96,0.00,,,0.03,0,Wunderground v.1.15,2013-01-17 08:45:00,
2013-01-17 03:50:00,42.4,41.3,29.98,WNW,289,0.0,0.0,96,0.00,,,0.03,0,Wunderground v.1.15,2013-01-17 08:50:00,
2013-01-17 03:55:00,42.4,41.3,29.98,WNW,289,0.0,0.0,96,0.00,,,0.03,0,Wunderground v.1.15,2013-01-17 08:55:00,
2013-01-17 04:00:00,42.4,41.3,29.97,WNW,289,0.0,0.0,96,0.00,,,0.04,0,Wunderground v.1.15,2013-01-17 09:00:00,
2013-01-17 04:05:00,42.4,41.3,29.97,WNW,289,0.0,0.0,96,0.00,,,0.04,0,Wunderground v.1.15,2013-01-17 09:05:00,
2013-01-17 04:10:00,42.4,41.3,29.97,WNW,289,0.0,0.0,96,0.00,,,0.04,0,Wunderground v.1.15,2013-01-17 09:10:00,
2013-01-17 04:15:00,42.4,41.3,29.98,WNW,289,0.0,0.0,96,0.00,,,0.04,0,Wunderground v.1.15,2013-01-17 09:15:00,
2013-01-17 04:20:00,42.4,41.3,29.98,WNW,289,0.0,0.0,96,0.00,,,0.04,0,Wunderground v.1.15,2013-01-17 09:20:00,
2013-01-17 04:25:00,42.4,41.3,29.98,WNW,289,0.0,0.0,96,0.00,,,0.04,0,Wunderground v.1.15,2013-01-17 09:25:00,
2013-01-17 04:30:00,42.4,41.3,29.98,WNW,282,0.0,2.0,96,0.00,,,0.05,0,Wunderground v.1.15,2013-01-17 09:30:00,
2013-01-17 04:35:00,42.4,41.3,29.98,West,281,0.0,2.0,96,0.00,,,0.05,0,Wunderground v.1.15,2013-01-17 09:35:00,
2013-01-17 04:40:00,42.4,41.3,29.98,West,281,0.0,0.0,96,0.00,,,0.05,0,Wunderground v.1.15,2013-01-17 09:40:00,
2013-01-17 04:45:00,42.4,41.3,29.97,West,280,0.0,3.0,96,0.00,,,0.05,0,Wunderground v.1.15,2013-01-17 09:45:00,
2013-01-17 04:50:00,42.4,41.3,29.97,West,280,5.0,5.0,96,0.00,,,0.05,0,Wunderground v.1.15,2013-01-17 09:50:00,
2013-01-17 04:55:00,42.4,41.3,29.97,West,280,0.0,6.0,96,0.00,,,0.06,0,Wunderground v.1.15,2013-01-17 09:55:00,
2013-01-17 05:00:00,42.4,41.3,29.98,West,280,0.0,0.0,96,0.07,,,0.07,0,Wunderground v.1.15,2013-01-17 10:00:00,
2013-01-17 05:05:00,42.4,41.3,29.98,West,280,0.0,0.0,96,0.07,,,0.07,0,Wunderground v.1.15,2013-01-17 10:05:00,
2013-01-17 05:10:00,42.4,41.3,29.98,West,280,0.0,0.0,96,0.06,,,0.07,0,Wunderground v.1.15,2013-01-17 10:10:00,
2013-01-17 05:15:00,42.4,41.3,29.98,West,280,0.0,0.0,96,0.04,,,0.07,0,Wunderground v.1.15,2013-01-17 10:15:00,
2013-01-17 05:20:00,42.4,41.3,29.98,West,280,0.0,0.0,96,0.00,,,0.08,0,Wunderground v.1.15,2013-01-17 10:20:00,
2013-01-17 05:25:00,42.4,41.3,29.98,West,280,0.0,0.0,96,0.00,,,0.08,0,Wunderground v.1.15,2013-01-17 10:25:00,
2013-01-17 05:30:00,42.3,41.5,29.98,West,280,0.0,0.0,97,0.00,,,0.08,0,Wunderground v.1.15,2013-01-17 10:30:00,
2013-01-17 05:35:00,42.4,41.6,29.98,West,280,0.0,0.0,97,0.00,,,0.08,0,Wunderground v.1.15,2013-01-17 10:35:00,
2013-01-17 05:40:00,42.4,41.6,29.98,West,280,0.0,0.0,97,0.00,,,0.08,0,Wunderground v.1.15,2013-01-17 10:40:00,
2013-01-17 05:45:00,42.4,41.6,30.01,West,280,0.0,0.0,97,0.00,,,0.08,0,Wunderground v.1.15,2013-01-17 10:45:00,
2013-01-17 05:50:00,42.4,41.6,30.01,West,280,0.0,0.0,97,0.00,,,0.09,0,Wunderground v.1.15,2013-01-17 10:50:00,
2013-01-17 05:55:00,42.4,41.6,30.01,West,279,0.0,0.0,97,0.00,,,0.09,0,Wunderground v.1.15,2013-01-17 10:55:00,
2013-01-17 06:00:00,42.4,41.6,30.01,West,279,0.0,0.0,97,0.06,,,0.10,0,Wunderground v.1.15,2013-01-17 11:00:00,
2013-01-17 06:05:00,42.4,41.6,30.01,West,279,0.0,0.0,97,0.06,,,0.10,0,Wunderground v.1.15,2013-01-17 11:05:00,
2013-01-17 06:10:00,42.3,41.5,30.01,West,279,0.0,0.0,97,0.06,,,0.11,0,Wunderground v.1.15,2013-01-17 11:10:00,
2013-01-17 06:15:00,42.4,41.6,30.01,West,279,0.0,0.0,97,0.06,,,0.11,0,Wunderground v.1.15,2013-01-17 11:15:00,
2013-01-17 06:23:00,42.3,42.0,30.01,West,279,0.0,-999.0,97,-99.99,,,0.11,,weatherlink.com 1.10,2013-01-17 11:23:00,
2013-01-17 06:30:00,42.3,41.5,30.03,West,268,4.0,4.0,97,0.00,,,0.11,0,Wunderground v.1.15,2013-01-17 11:30:00,
2013-01-17 06:35:00,42.3,41.5,30.03,West,268,1.0,4.0,97,0.00,,,0.12,0,Wunderground v.1.15,2013-01-17 11:35:00,
2013-01-17 06:40:00,42.3,41.5,30.03,West,267,0.0,1.0,97,0.00,,,0.12,0,Wunderground v.1.15,2013-01-17 11:40:00,
2013-01-17 06:45:00,42.3,41.5,30.03,West,267,0.0,1.0,97,0.00,,,0.12,0,Wunderground v.1.15,2013-01-17 11:45:00,
2013-01-17 06:50:00,42.3,41.5,30.03,West,267,0.0,0.0,97,0.04,,,0.13,0,Wunderground v.1.15,2013-01-17 11:50:00,
2013-01-17 06:55:00,42.3,41.5,30.03,West,267,0.0,0.0,97,0.04,,,0.13,0,Wunderground v.1.15,2013-01-17 11:55:00,
2013-01-17 07:00:00,42.2,41.4,30.03,West,267,0.0,1.0,97,0.04,,,0.13,0,Wunderground v.1.15,2013-01-17 12:00:00,
2013-01-17 07:05:00,42.2,41.4,30.03,West,267,0.0,1.0,97,0.00,,,0.13,0,Wunderground v.1.15,2013-01-17 12:05:00,
2013-01-17 07:10:00,42.2,41.4,30.03,West,267,0.0,0.0,97,0.00,,,0.13,0,Wunderground v.1.15,2013-01-17 12:10:00,
2013-01-17 07:15:00,42.2,41.4,30.03,West,267,0.0,0.0,97,0.00,,,0.13,0,Wunderground v.1.15,2013-01-17 12:15:00,
2013-01-17 07:20:00,42.2,41.4,30.03,West,267,0.0,0.0,97,0.00,,,0.14,0,Wunderground v.1.15,2013-01-17 12:20:00,
2013-01-17 07:25:00,42.2,41.4,30.03,West,267,0.0,0.0,97,0.00,,,0.14,0,Wunderground v.1.15,2013-01-17 12:25:00,
2013-01-17 07:30:00,42.2,41.4,30.03,West,267,0.0,0.0,97,0.00,,,0.14,0,Wunderground v.1.15,2013-01-17 12:30:00,
2013-01-17 07:35:00,42.2,41.4,30.03,West,267,0.0,0.0,97,0.00,,,0.14,5,Wunderground v.1.15,2013-01-17 12:35:00,
2013-01-17 07:40:00,42.2,41.4,30.03,West,267,0.0,0.0,97,0.00,,,0.14,9,Wunderground v.1.15,2013-01-17 12:40:00,
2013-01-17 07:45:00,42.2,41.4,30.03,West,267,3.0,3.0,97,0.00,,,0.14,12,Wunderground v.1.15,2013-01-17 12:45:00,
2013-01-17 07:50:00,42.2,41.4,30.03,NNW,337,0.0,0.0,97,0.00,,,0.15,5,Wunderground v.1.15,2013-01-17 12:50:00,
2013-01-17 07:55:00,42.2,41.4,30.03,WNW,300,3.0,3.0,97,0.00,,,0.15,5,Wunderground v.1.15,2013-01-17 12:55:00,
2013-01-17 08:00:00,42.2,41.4,30.05,WNW,298,0.0,1.0,97,0.00,,,0.15,9,Wunderground v.1.15,2013-01-17 13:00:00,
2013-01-17 08:05:00,42.2,41.4,30.05,WNW,298,0.0,1.0,97,0.00,,,0.15,16,Wunderground v.1.15,2013-01-17 13:05:00,
2013-01-17 08:10:00,42.2,41.4,30.05,WNW,298,0.0,0.0,97,0.00,,,0.15,21,Wunderground v.1.15,2013-01-17 13:10:00,
2013-01-17 08:15:00,42.2,41.4,30.05,WNW,298,0.0,0.0,97,0.00,,,0.15,21,Wunderground v.1.15,2013-01-17 13:15:00,
2013-01-17 08:20:00,42.2,41.4,30.05,WNW,297,0.0,0.0,97,0.00,,,0.15,26,Wunderground v.1.15,2013-01-17 13:20:00,
2013-01-17 08:25:00,42.3,41.5,30.05,WNW,297,2.0,2.0,97,0.00,,,0.15,35,Wunderground v.1.15,2013-01-17 13:25:00,
2013-01-17 08:30:00,42.3,41.5,30.07,WNW,295,2.0,5.0,97,0.00,,,0.15,18,Wunderground v.1.15,2013-01-17 13:30:00,
2013-01-17 08:35:00,42.3,41.5,30.07,WNW,295,0.0,5.0,97,0.00,,,0.16,19,Wunderground v.1.15,2013-01-17 13:35:00,
2013-01-17 08:40:00,42.4,41.6,30.07,WNW,295,0.0,1.0,97,0.00,,,0.16,25,Wunderground v.1.15,2013-01-17 13:40:00,
2013-01-17 08:45:00,42.4,41.6,30.08,WNW,295,0.0,1.0,97,0.00,,,0.16,32,Wunderground v.1.15,2013-01-17 13:45:00,
2013-01-17 08:50:00,42.4,41.6,30.08,WNW,295,2.0,3.0,97,0.00,,,0.16,23,Wunderground v.1.15,2013-01-17 13:50:00,
2013-01-17 08:55:00,42.5,41.7,30.08,WNW,295,0.0,4.0,97,0.00,,,0.16,30,Wunderground v.1.15,2013-01-17 13:55:00,
2013-01-17 09:00:00,42.5,41.7,30.08,WNW,295,0.0,0.0,97,0.00,,,0.16,32,Wunderground v.1.15,2013-01-17 14:00:00,
2013-01-17 09:05:00,42.5,41.7,30.08,WNW,295,0.0,0.0,97,0.00,,,0.16,39,Wunderground v.1.15,2013-01-17 14:05:00,
2013-01-17 09:10:00,42.5,41.7,30.08,WNW,295,0.0,0.0,97,0.00,,,0.16,33,Wunderground v.1.15,2013-01-17 14:10:00,
2013-01-17 09:15:00,42.5,41.7,30.08,WNW,295,0.0,0.0,97,0.00,,,0.17,26,Wunderground v.1.15,2013-01-17 14:15:00,
2013-01-17 09:20:00,42.4,41.6,30.08,WNW,295,0.0,0.0,97,0.00,,,0.17,19,Wunderground v.1.15,2013-01-17 14:20:00,
2013-01-17 09:25:00,42.4,41.6,30.08,WNW,295,0.0,0.0,97,0.00,,,0.17,25,Wunderground v.1.15,2013-01-17 14:25:00,
2013-01-17 09:30:00,42.3,41.5,30.08,WNW,295,0.0,0.0,97,0.00,,,0.17,30,Wunderground v.1.15,2013-01-17 14:30:00,
2013-01-17 09:35:00,42.1,41.0,30.08,WNW,295,1.0,4.0,96,0.00,,,0.17,19,Wunderground v.1.15,2013-01-17 14:35:00,
2013-01-17 09:40:00,42.0,40.9,30.08,WNW,295,0.0,4.0,96,0.00,,,0.17,30,Wunderground v.1.15,2013-01-17 14:40:00,
2013-01-17 09:45:00,42.0,40.9,30.11,WNW,295,0.0,4.0,96,0.00,,,0.17,19,Wunderground v.1.15,2013-01-17 14:45:00,
2013-01-17 09:50:00,42.0,40.9,30.11,WNW,295,0.0,0.0,96,0.00,,,0.17,33,Wunderground v.1.15,2013-01-17 14:50:00,
2013-01-17 09:55:00,42.0,40.9,30.11,WNW,295,0.0,0.0,96,0.00,,,0.17,37,Wunderground v.1.15,2013-01-17 14:55:00,
2013-01-17 10:00:00,41.9,40.8,30.09,WNW,295,0.0,0.0,96,0.00,,,0.17,40,Wunderground v.1.15,2013-01-17 15:00:00,
2013-01-17 10:05:00,41.8,40.7,30.09,WNW,295,0.0,0.0,96,0.00,,,0.17,33,Wunderground v.1.15,2013-01-17 15:05:00,
2013-01-17 10:10:00,41.8,40.7,30.09,WNW,295,0.0,0.0,96,0.00,,,0.17,44,Wunderground v.1.15,2013-01-17 15:10:00,
2013-01-17 10:15:00,41.6,40.5,30.09,WNW,295,0.0,0.0,96,0.00,,,0.18,58,Wunderground v.1.15,2013-01-17 15:15:00,
2013-01-17 10:20:00,41.6,40.5,30.09,WNW,295,0.0,0.0,96,0.00,,,0.18,32,Wunderground v.1.15,2013-01-17 15:20:00,
2013-01-17 10:25:00,41.6,40.5,30.09,WNW,295,0.0,0.0,96,0.00,,,0.18,39,Wunderground v.1.15,2013-01-17 15:25:00,
2013-01-17 10:30:00,41.7,40.6,30.10,WNW,295,0.0,0.0,96,0.00,,,0.18,49,Wunderground v.1.15,2013-01-17 15:30:00,
2013-01-17 10:35:00,41.7,40.6,30.10,WNW,295,0.0,0.0,96,0.00,,,0.18,35,Wunderground v.1.15,2013-01-17 15:35:00,
2013-01-17 10:40:00,41.7,40.6,30.10,WNW,295,0.0,0.0,96,0.00,,,0.18,44,Wunderground v.1.15,2013-01-17 15:40:00,
2013-01-17 10:45:00,41.6,40.5,30.09,WNW,295,0.0,1.0,96,0.00,,,0.18,56,Wunderground v.1.15,2013-01-17 15:45:00,
2013-01-17 10:50:00,41.6,40.5,30.09,WNW,295,0.0,0.0,96,0.00,,,0.19,49,Wunderground v.1.15,2013-01-17 15:50:00,
2013-01-17 10:55:00,41.6,40.5,30.09,WNW,295,0.0,0.0,96,0.00,,,0.19,58,Wunderground v.1.15,2013-01-17 15:55:00,
2013-01-17 11:00:00,41.7,40.6,30.09,WNW,295,0.0,0.0,96,0.00,,,0.19,70,Wunderground v.1.15,2013-01-17 16:00:00,
2013-01-17 11:05:00,41.8,40.7,30.09,WNW,295,0.0,0.0,96,0.00,,,0.19,65,Wunderground v.1.15,2013-01-17 16:05:00,
2013-01-17 11:10:00,41.9,40.8,30.09,WNW,295,0.0,0.0,96,0.00,,,0.19,79,Wunderground v.1.15,2013-01-17 16:10:00,
2013-01-17 11:15:00,42.0,40.9,30.08,WNW,295,0.0,0.0,96,0.00,,,0.19,72,Wunderground v.1.15,2013-01-17 16:15:00,
2013-01-17 11:20:00,42.0,40.9,30.08,WNW,295,0.0,0.0,96,0.00,,,0.19,76,Wunderground v.1.15,2013-01-17 16:20:00,
2013-01-17 11:25:00,42.0,40.9,30.08,WNW,295,0.0,0.0,96,0.00,,,0.19,54,Wunderground v.1.15,2013-01-17 16:25:00,
2013-01-17 11:30:00,42.0,40.9,30.07,WNW,295,0.0,0.0,96,0.00,,,0.19,37,Wunderground v.1.15,2013-01-17 16:30:00,
2013-01-17 11:35:00,41.9,40.6,30.07,WNW,295,0.0,0.0,95,0.00,,,0.19,40,Wunderground v.1.15,2013-01-17 16:35:00,
2013-01-17 11:40:00,41.8,40.5,30.07,WNW,295,0.0,0.0,95,0.00,,,0.19,39,Wunderground v.1.15,2013-01-17 16:40:00,
2013-01-17 11:45:00,41.8,40.5,30.07,WNW,295,0.0,0.0,95,0.00,,,0.19,53,Wunderground v.1.15,2013-01-17 16:45:00,
2013-01-17 11:50:00,41.7,40.4,30.07,WNW,295,0.0,0.0,95,0.00,,,0.19,88,Wunderground v.1.15,2013-01-17 16:50:00,
2013-01-17 11:55:00,41.7,40.4,30.07,WNW,296,5.0,5.0,95,0.00,,,0.19,98,Wunderground v.1.15,2013-01-17 16:55:00,
2013-01-17 12:00:00,41.6,40.3,30.08,NNW,332,4.0,4.0,95,0.00,,,0.20,95,Wunderground v.1.15,2013-01-17 17:00:00,
2013-01-17 12:05:00,41.3,39.7,30.08,North,355,2.0,6.0,94,0.00,,,0.20,97,Wunderground v.1.15,2013-01-17 17:05:00,
2013-01-17 12:10:00,41.0,40.7,30.08,North,355,6.0,6.0,99,0.00,,,0.20,81,Wunderground v.1.15,2013-01-17 17:10:00,
2013-01-17 12:15:00,41.0,39.4,30.07,North,360,4.0,6.0,94,0.00,,,0.20,100,Wunderground v.1.15,2013-01-17 17:15:00,
2013-01-17 12:20:00,41.2,39.3,30.07,NNE,16,5.0,7.0,93,0.00,,,0.20,98,Wunderground v.1.15,2013-01-17 17:20:00,
2013-01-17 12:25:00,41.4,39.3,30.07,NNE,16,3.0,7.0,92,0.00,,,0.20,100,Wunderground v.1.15,2013-01-17 17:25:00,
2013-01-17 12:30:00,41.5,39.1,30.06,NNE,15,8.0,11.0,91,0.00,,,0.20,104,Wunderground v.1.15,2013-01-17 17:30:00,
2013-01-17 12:35:00,41.4,38.7,30.06,North,11,5.0,11.0,90,0.00,,,0.20,86,Wunderground v.1.15,2013-01-17 17:35:00,
2013-01-17 12:40:00,41.4,38.1,30.06,NNE,28,9.0,10.0,88,0.00,,,0.21,88,Wunderground v.1.15,2013-01-17 17:40:00,
2013-01-17 12:45:00,41.5,37.6,30.04,NE,42,10.0,11.0,86,0.00,,,0.21,95,Wunderground v.1.15,2013-01-17 17:45:00,
2013-01-17 12:50:00,41.6,37.4,30.04,NNE,18,6.0,13.0,85,0.00,,,0.21,60,Wunderground v.1.15,2013-01-17 17:50:00,
2013-01-17 12:55:00,41.6,37.1,30.04,North,355,12.0,13.0,84,0.00,,,0.21,102,Wunderground v.1.15,2013-01-17 17:55:00,
2013-01-17 13:00:00,41.5,36.7,30.03,North,11,9.0,10.0,83,0.00,,,0.21,107,Wunderground v.1.15,2013-01-17 18:00:00,
2013-01-17 13:05:00,41.4,36.6,30.03,NNE,18,12.0,14.0,83,0.00,,,0.21,63,Wunderground v.1.15,2013-01-17 18:05:00,
2013-01-17 13:10:00,41.2,36.4,30.03,NNE,21,12.0,14.0,83,0.00,,,0.21,49,Wunderground v.1.15,2013-01-17 18:10:00,
2013-01-17 13:15:00,40.9,35.8,30.03,NNE,26,11.0,15.0,82,0.00,,,0.21,72,Wunderground v.1.15,2013-01-17 18:15:00,
2013-01-17 13:20:00,40.8,36.0,30.03,NNE,18,7.0,11.0,83,0.00,,,0.21,67,Wunderground v.1.15,2013-01-17 18:20:00,
2013-01-17 13:25:00,40.7,35.9,30.03,North,5,5.0,12.0,83,0.00,,,0.21,62,Wunderground v.1.15,2013-01-17 18:25:00,
2013-01-17 13:30:00,40.4,35.6,30.05,North,5,8.0,8.0,83,0.00,,,0.21,37,Wunderground v.1.15,2013-01-17 18:30:00,
2013-01-17 13:35:00,40.2,35.4,30.05,North,5,5.0,8.0,83,0.00,,,0.21,30,Wunderground v.1.15,2013-01-17 18:35:00,
2013-01-17 13:40:00,40.3,35.5,30.05,North,355,8.0,12.0,83,0.00,,,0.21,49,Wunderground v.1.15,2013-01-17 18:40:00,
2013-01-17 13:45:00,40.4,35.6,30.04,NNE,17,7.0,14.0,83,0.00,,,0.21,44,Wunderground v.1.15,2013-01-17 18:45:00,
2013-01-17 13:50:00,40.2,35.4,30.04,North,5,7.0,9.0,83,0.00,,,0.22,37,Wunderground v.1.15,2013-01-17 18:50:00,
2013-01-17 13:55:00,40.1,35.7,30.04,NNE,24,14.0,14.0,84,0.00,,,0.22,28,Wunderground v.1.15,2013-01-17 18:55:00,
2013-01-17 14:00:00,40.0,35.6,30.04,North,11,6.0,8.0,84,0.00,,,0.22,30,Wunderground v.1.15,2013-01-17 19:00:00,
2013-01-17 14:05:00,40.2,35.8,30.04,NNE,32,10.0,16.0,84,0.00,,,0.22,32,Wunderground v.1.15,2013-01-17 19:05:00,
2013-01-17 14:10:00,40.3,35.5,30.04,North,355,10.0,10.0,83,0.00,,,0.22,33,Wunderground v.1.15,2013-01-17 19:10:00,
2013-01-17 14:15:00,40.2,35.4,30.04,NNE,26,6.0,12.0,83,0.00,,,0.22,30,Wunderground v.1.15,2013-01-17 19:15:00,
2013-01-17 14:20:00,40.2,35.8,30.04,NNE,17,13.0,13.0,84,0.00,,,0.22,23,Wunderground v.1.15,2013-01-17 19:20:00,
2013-01-17 14:25:00,40.0,35.6,30.04,NNW,347,12.0,14.0,84,0.00,,,0.22,23,Wunderground v.1.15,2013-01-17 19:25:00,
2013-01-17 14:30:00,39.7,35.6,30.04,NNE,28,5.0,9.0,85,0.00,,,0.22,23,Wunderground v.1.15,2013-01-17 19:30:00,
2013-01-17 14:35:00,39.6,35.5,30.04,North,5,5.0,11.0,85,0.00,,,0.22,28,Wunderground v.1.15,2013-01-17 19:35:00,
2013-01-17 14:40:00,39.4,35.3,30.04,NNE,21,9.0,10.0,85,0.00,,,0.23,32,Wunderground v.1.15,2013-01-17 19:40:00,
2013-01-17 14:45:00,39.2,35.4,30.06,NNE,24,8.0,12.0,86,0.00,,,0.23,33,Wunderground v.1.15,2013-01-17 19:45:00,
2013-01-17 14:50:00,39.3,35.5,30.06,NNE,13,0.0,8.0,86,0.00,,,0.23,35,Wunderground v.1.15,2013-01-17 19:50:00,
2013-01-17 14:55:00,39.4,35.6,30.06,North,5,4.0,8.0,86,0.00,,,0.23,49,Wunderground v.1.15,2013-01-17 19:55:00,
2013-01-17 15:00:00,39.5,36.0,30.07,NNE,15,0.0,3.0,87,0.00,,,0.23,54,Wunderground v.1.15,2013-01-17 20:00:00,
2013-01-17 15:05:00,39.5,35.7,30.07,NNE,13,0.0,3.0,86,0.00,,,0.23,67,Wunderground v.1.15,2013-01-17 20:05:00,
2013-01-17 15:10:00,39.5,35.7,30.07,NNE,13,0.0,0.0,86,0.00,,,0.23,70,Wunderground v.1.15,2013-01-17 20:10:00,
2013-01-17 15:15:00,39.5,35.4,30.06,NNE,13,0.0,0.0,85,0.00,,,0.23,62,Wunderground v.1.15,2013-01-17 20:15:00,
2013-01-17 15:20:00,39.7,35.6,30.06,NNE,13,0.0,0.0,85,0.00,,,0.23,33,Wunderground v.1.15,2013-01-17 20:20:00,
2013-01-17 15:25:00,39.8,35.7,30.06,NNE,13,0.0,0.0,85,0.00,,,0.23,26,Wunderground v.1.15,2013-01-17 20:25:00,
2013-01-17 15:30:00,39.8,35.7,30.06,NNE,13,0.0,0.0,85,0.00,,,0.23,33,Wunderground v.1.15,2013-01-17 20:30:00,
2013-01-17 15:35:00,39.9,35.8,30.06,NNE,14,0.0,0.0,85,0.00,,,0.23,30,Wunderground v.1.15,2013-01-17 20:35:00,
2013-01-17 15:40:00,39.9,35.8,30.06,NNE,15,0.0,0.0,85,0.00,,,0.23,30,Wunderground v.1.15,2013-01-17 20:40:00,
2013-01-17 15:45:00,39.9,35.8,30.06,NNE,15,0.0,0.0,85,0.00,,,0.23,35,Wunderground v.1.15,2013-01-17 20:45:00,
2013-01-17 15:50:00,39.9,36.1,30.06,NNE,15,0.0,0.0,86,0.00,,,0.23,25,Wunderground v.1.15,2013-01-17 20:50:00,
2013-01-17 15:55:00,39.8,36.0,30.06,NNE,16,0.0,0.0,86,0.00,,,0.23,18,Wunderground v.1.15,2013-01-17 20:55:00,
2013-01-17 16:00:00,39.8,36.0,30.06,NNE,16,0.0,0.0,86,0.00,,,0.24,25,Wunderground v.1.15,2013-01-17 21:00:00,
2013-01-17 16:05:00,39.8,36.2,30.06,NNE,16,0.0,0.0,87,0.00,,,0.24,12,Wunderground v.1.15,2013-01-17 21:05:00,
2013-01-17 16:10:00,39.7,36.1,30.06,NNE,16,0.0,0.0,87,0.00,,,0.24,7,Wunderground v.1.15,2013-01-17 21:10:00,
2013-01-17 16:15:00,39.7,36.1,30.08,NNE,16,0.0,0.0,87,0.00,,,0.24,7,Wunderground v.1.15,2013-01-17 21:15:00,
2013-01-17 16:20:00,39.7,36.1,30.08,NNE,16,0.0,0.0,87,0.00,,,0.24,5,Wunderground v.1.15,2013-01-17 21:20:00,
2013-01-17 16:25:00,39.7,36.1,30.08,NNE,16,0.0,0.0,87,0.00,,,0.24,5,Wunderground v.1.15,2013-01-17 21:25:00,
2013-01-17 16:30:00,39.6,36.0,30.07,NNE,16,0.0,0.0,87,0.00,,,0.24,5,Wunderground v.1.15,2013-01-17 21:30:00,
2013-01-17 16:35:00,39.6,36.0,30.07,NNE,16,0.0,0.0,87,0.00,,,0.24,0,Wunderground v.1.15,2013-01-17 21:35:00,
2013-01-17 16:40:00,39.5,36.0,30.07,NNE,16,3.0,3.0,87,0.00,,,0.24,0,Wunderground v.1.15,2013-01-17 21:40:00,
2013-01-17 16:45:00,39.6,35.8,30.06,NNE,16,0.0,4.0,86,0.00,,,0.24,0,Wunderground v.1.15,2013-01-17 21:45:00,
2013-01-17 16:50:00,39.7,35.9,30.06,NNE,16,0.0,1.0,86,0.00,,,0.24,0,Wunderground v.1.15,2013-01-17 21:50:00,
2013-01-17 16:55:00,39.9,36.1,30.06,NNE,17,0.0,1.0,86,0.00,,,0.24,0,Wunderground v.1.15,2013-01-17 21:55:00,
2013-01-17 17:00:00,40.1,36.2,30.06,NNE,24,0.0,2.0,86,0.00,,,0.25,0,Wunderground v.1.15,2013-01-17 22:00:00,
2013-01-17 17:05:00,40.3,36.1,30.06,NNE,24,0.0,2.0,85,0.00,,,0.25,0,Wunderground v.1.15,2013-01-17 22:05:00,
2013-01-17 17:10:00,40.4,36.2,30.06,NNE,24,3.0,11.0,85,0.00,,,0.25,0,Wunderground v.1.15,2013-01-17 22:10:00,
2013-01-17 17:15:00,40.5,36.0,30.06,North,9,7.0,11.0,84,0.00,,,0.25,0,Wunderground v.1.15,2013-01-17 22:15:00,
2013-01-17 17:20:00,40.7,36.2,30.06,North,5,6.0,7.0,84,0.00,,,0.25,0,Wunderground v.1.15,2013-01-17 22:20:00,
2013-01-17 17:25:00,40.8,36.0,30.06,NNE,15,4.0,7.0,83,0.00,,,0.25,0,Wunderground v.1.15,2013-01-17 22:25:00,
2013-01-17 17:30:00,40.9,36.1,30.06,NNE,18,0.0,4.0,83,0.00,,,0.25,0,Wunderground v.1.15,2013-01-17 22:30:00,
2013-01-17 17:35:00,40.9,36.1,30.06,NNE,26,9.0,10.0,83,0.00,,,0.25,0,Wunderground v.1.15,2013-01-17 22:35:00,
2013-01-17 17:40:00,40.9,35.8,30.06,NNE,25,5.0,7.0,82,0.00,,,0.25,0,Wunderground v.1.15,2013-01-17 22:40:00,
2013-01-17 17:45:00,40.9,35.8,30.06,NNE,24,6.0,8.0,82,0.00,,,0.25,0,Wunderground v.1.15,2013-01-17 22:45:00,
2013-01-17 17:50:00,40.9,35.8,30.06,NNE,13,0.0,3.0,82,0.00,,,0.25,0,Wunderground v.1.15,2013-01-17 22:50:00,
2013-01-17 17:55:00,40.7,35.6,30.06,NNE,33,6.0,10.0,82,0.00,,,0.25,0,Wunderground v.1.15,2013-01-17 22:55:00,
2013-01-17 18:00:00,40.6,35.2,30.06,North,360,9.0,9.0,81,0.00,,,0.25,0,Wunderground v.1.15,2013-01-17 23:00:00,
2013-01-17 18:05:00,40.5,35.4,30.06,North,351,0.0,10.0,82,0.00,,,0.25,0,Wunderground v.1.15,2013-01-17 23:05:00,
2013-01-17 18:10:00,40.6,35.5,30.06,NNE,20,9.0,9.0,82,0.00,,,0.25,0,Wunderground v.1.15,2013-01-17 23:10:00,
2013-01-17 18:15:00,40.6,35.5,30.07,North,350,0.0,10.0,82,0.00,,,0.25,0,Wunderground v.1.15,2013-01-17 23:15:00,
2013-01-17 18:20:00,40.4,35.3,30.07,NNE,19,0.0,4.0,82,0.00,,,0.25,0,Wunderground v.1.15,2013-01-17 23:20:00,
2013-01-17 18:25:00,40.4,35.3,30.07,NE,34,2.0,6.0,82,0.00,,,0.26,0,Wunderground v.1.15,2013-01-17 23:25:00,
2013-01-17 18:30:00,40.3,35.2,30.08,NE,34,0.0,1.0,82,0.00,,,0.26,0,Wunderground v.1.15,2013-01-17 23:30:00,
2013-01-17 18:35:00,40.2,35.1,30.08,NE,34,0.0,1.0,82,0.00,,,0.26,0,Wunderground v.1.15,2013-01-17 23:35:00,
2013-01-17 18:40:00,40.1,35.4,30.08,NE,34,0.0,0.0,83,0.00,,,0.26,0,Wunderground v.1.15,2013-01-17 23:40:00,
2013-01-17 18:45:00,39.9,35.2,30.07,NE,34,0.0,0.0,83,0.00,,,0.26,0,Wunderground v.1.15,2013-01-17 23:45:00,
2013-01-17 18:50:00,39.8,35.1,30.07,NE,34,0.0,0.0,83,0.00,,,0.26,0,Wunderground v.1.15,2013-01-17 23:50:00,
2013-01-17 18:55:00,39.7,35.3,30.07,NE,34,0.0,0.0,84,0.00,,,0.26,0,Wunderground v.1.15,2013-01-17 23:55:00,
2013-01-17 19:00:00,39.6,35.2,30.06,NE,34,0.0,0.0,84,0.00,,,0.26,0,Wunderground v.1.15,2013-01-18 00:00:00,
2013-01-17 19:05:00,39.6,35.2,30.06,NE,34,0.0,0.0,84,0.00,,,0.26,0,Wunderground v.1.15,2013-01-18 00:05:00,
2013-01-17 19:10:00,39.6,35.2,30.06,NE,34,0.0,0.0,84,0.00,,,0.26,0,Wunderground v.1.15,2013-01-18 00:10:00,
2013-01-17 19:15:00,39.5,35.1,30.06,NE,34,0.0,0.0,84,0.00,,,0.26,0,Wunderground v.1.15,2013-01-18 00:15:00,
2013-01-17 19:20:00,39.5,35.1,30.06,NE,34,0.0,0.0,84,0.00,,,0.26,0,Wunderground v.1.15,2013-01-18 00:20:00,
2013-01-17 19:25:00,39.5,35.1,30.06,NE,34,0.0,0.0,84,0.00,,,0.26,0,Wunderground v.1.15,2013-01-18 00:25:00,
2013-01-17 19:30:00,39.5,35.4,30.08,NNE,20,4.0,4.0,85,0.00,,,0.26,0,Wunderground v.1.15,2013-01-18 00:30:00,
2013-01-17 19:35:00,39.5,35.4,30.08,North,5,0.0,7.0,85,0.00,,,0.26,0,Wunderground v.1.15,2013-01-18 00:35:00,
2013-01-17 19:40:00,39.6,35.5,30.08,North,360,4.0,5.0,85,0.00,,,0.27,0,Wunderground v.1.15,2013-01-18 00:40:00,
2013-01-17 19:45:00,39.6,35.5,30.06,NNW,334,1.0,9.0,85,0.00,,,0.27,0,Wunderground v.1.15,2013-01-18 00:45:00,
2013-01-17 19:50:00,39.6,35.8,30.06,NNW,333,0.0,4.0,86,0.00,,,0.27,0,Wunderground v.1.15,2013-01-18 00:50:00,
2013-01-17 19:55:00,39.5,35.7,30.06,NNW,333,5.0,6.0,86,0.00,,,0.27,0,Wunderground v.1.15,2013-01-18 00:55:00,
2013-01-17 20:00:00,39.5,35.7,30.06,NNW,341,0.0,2.0,86,0.00,,,0.27,0,Wunderground v.1.15,2013-01-18 01:00:00,
2013-01-17 20:05:00,39.5,35.4,30.06,NNW,340,6.0,7.0,85,0.00,,,0.27,0,Wunderground v.1.15,2013-01-18 01:05:00,
2013-01-17 20:10:00,39.6,35.5,30.06,NNW,342,2.0,7.0,85,0.00,,,0.27,0,Wunderground v.1.15,2013-01-18 01:10:00,
2013-01-17 20:15:00,39.7,35.6,30.05,NNW,337,4.0,9.0,85,0.00,,,0.27,0,Wunderground v.1.15,2013-01-18 01:15:00,
2013-01-17 20:20:00,39.8,35.4,30.05,NNW,327,8.0,8.0,84,0.00,,,0.27,0,Wunderground v.1.15,2013-01-18 01:20:00,
2013-01-17 20:25:00,39.6,35.2,30.05,NNW,333,5.0,8.0,84,0.00,,,0.27,0,Wunderground v.1.15,2013-01-18 01:25:00,
2013-01-17 20:30:00,39.6,35.2,30.03,NNW,339,7.0,7.0,84,0.00,,,0.27,0,Wunderground v.1.15,2013-01-18 01:30:00,
2013-01-17 20:35:00,39.6,35.2,30.03,NNW,332,5.0,7.0,84,0.00,,,0.27,0,Wunderground v.1.15,2013-01-18 01:35:00,
2013-01-17 20:40:00,39.6,35.2,30.03,NNW,340,1.0,7.0,84,0.00,,,0.27,0,Wunderground v.1.15,2013-01-18 01:40:00,
2013-01-17 20:45:00,39.7,35.3,30.05,NNW,328,3.0,8.0,84,0.00,,,0.27,0,Wunderground v.1.15,2013-01-18 01:45:00,
2013-01-17 20:50:00,39.7,35.3,30.05,NNW,341,0.0,8.0,84,0.00,,,0.27,0,Wunderground v.1.15,2013-01-18 01:50:00,
2013-01-17 20:55:00,39.7,35.3,30.05,NNW,344,4.0,10.0,84,0.00,,,0.27,0,Wunderground v.1.15,2013-01-18 01:55:00,
2013-01-17 21:00:00,39.8,35.1,30.02,North,5,7.0,9.0,83,0.00,,,0.27,0,Wunderground v.1.15,2013-01-18 02:00:00,
2013-01-17 21:05:00,40.0,35.3,30.02,North,5,6.0,12.0,83,0.00,,,0.27,0,Wunderground v.1.15,2013-01-18 02:05:00,
2013-01-17 21:10:00,40.0,34.9,30.02,North,9,11.0,11.0,82,0.00,,,0.27,0,Wunderground v.1.15,2013-01-18 02:10:00,
2013-01-17 21:15:00,40.1,34.7,30.01,North,11,3.0,12.0,81,0.00,,,0.27,0,Wunderground v.1.15,2013-01-18 02:15:00,
2013-01-17 21:20:00,40.2,35.1,30.01,North,5,8.0,11.0,82,0.00,,,0.27,0,Wunderground v.1.15,2013-01-18 02:20:00,
2013-01-17 21:25:00,40.2,35.1,30.01,NNE,29,11.0,11.0,82,0.00,,,0.28,0,Wunderground v.1.15,2013-01-18 02:25:00,
2013-01-17 21:30:00,40.2,34.5,30.01,NNE,19,8.0,10.0,80,0.00,,,0.28,0,Wunderground v.1.15,2013-01-18 02:30:00,
2013-01-17 21:35:00,40.1,34.4,30.01,NNE,22,12.0,12.0,80,0.00,,,0.28,0,Wunderground v.1.15,2013-01-18 02:35:00,
2013-01-17 21:40:00,40.0,34.3,30.01,NNE,17,9.0,11.0,80,0.00,,,0.28,0,Wunderground v.1.15,2013-01-18 02:40:00,
2013-01-17 21:45:00,39.9,34.5,30.03,NNE,24,0.0,11.0,81,0.00,,,0.28,0,Wunderground v.1.15,2013-01-18 02:45:00,
2013-01-17 21:50:00,39.8,34.4,30.03,NNE,21,6.0,6.0,81,0.00,,,0.28,0,Wunderground v.1.15,2013-01-18 02:50:00,
2013-01-17 21:55:00,39.6,33.9,30.03,NNE,26,6.0,10.0,80,0.00,,,0.28,0,Wunderground v.1.15,2013-01-18 02:55:00,
2013-01-17 22:00:00,39.6,34.2,30.01,NNE,19,0.0,4.0,81,0.00,,,0.28,0,Wunderground v.1.15,2013-01-18 03:00:00,
2013-01-17 22:05:00,39.6,34.6,30.01,North,9,2.0,6.0,82,0.00,,,0.28,0,Wunderground v.1.15,2013-01-18 03:05:00,
2013-01-17 22:10:00,39.6,34.6,30.01,North,9,7.0,8.0,82,0.00,,,0.28,0,Wunderground v.1.15,2013-01-18 03:10:00,
2013-01-17 22:15:00,39.6,34.9,30.03,NNE,12,3.0,8.0,83,0.00,,,0.28,0,Wunderground v.1.15,2013-01-18 03:15:00,
2013-01-17 22:20:00,39.5,34.8,30.03,North,349,6.0,9.0,83,0.00,,,0.28,0,Wunderground v.1.15,2013-01-18 03:20:00,
2013-01-17 22:25:00,39.1,34.7,30.03,NNE,14,8.0,10.0,84,0.00,,,0.28,0,Wunderground v.1.15,2013-01-18 03:25:00,
2013-01-17 22:30:00,38.8,34.7,29.99,NNE,32,15.0,15.0,85,0.00,,,0.28,0,Wunderground v.1.15,2013-01-18 03:30:00,
2013-01-17 22:35:00,38.2,34.4,29.99,North,355,8.0,15.0,86,0.00,,,0.28,0,Wunderground v.1.15,2013-01-18 03:35:00,
2013-01-17 22:40:00,37.6,34.1,29.99,North,5,7.0,9.0,87,0.00,,,0.28,0,Wunderground v.1.15,2013-01-18 03:40:00,
2013-01-17 22:45:00,37.3,34.1,30.04,NNW,333,8.0,9.0,88,0.00,,,0.28,0,Wunderground v.1.15,2013-01-18 03:45:00,
2013-01-17 22:50:00,37.0,34.1,30.04,NNW,348,4.0,14.0,89,0.00,,,0.28,0,Wunderground v.1.15,2013-01-18 03:50:00,
2013-01-17 22:55:00,36.6,33.9,30.04,NNW,346,7.0,14.0,90,0.00,,,0.29,0,Wunderground v.1.15,2013-01-18 03:55:00,
2013-01-17 23:00:00,36.3,33.6,30.01,NNW,346,9.0,9.0,90,0.00,,,0.29,0,Wunderground v.1.15,2013-01-18 04:00:00,
2013-01-17 23:05:00,36.1,33.7,30.01,NNW,331,7.0,13.0,91,0.00,,,0.29,0,Wunderground v.1.15,2013-01-18 04:05:00,
2013-01-17 23:10:00,35.9,33.5,30.01,NNW,333,6.0,6.0,91,0.00,,,0.29,0,Wunderground v.1.15,2013-01-18 04:10:00,
2013-01-17 23:15:00,35.6,33.2,30.03,NNW,332,0.0,6.0,91,0.00,,,0.29,0,Wunderground v.1.15,2013-01-18 04:15:00,
2013-01-17 23:20:00,35.3,32.9,30.03,NNW,334,3.0,7.0,91,0.00,,,0.29,0,Wunderground v.1.15,2013-01-18 04:20:00,
2013-01-17 23:25:00,34.9,32.8,30.03,NNW,333,3.0,7.0,92,0.00,,,0.29,0,Wunderground v.1.15,2013-01-18 04:25:00,
2013-01-17 23:30:00,34.9,32.8,30.00,North,355,1.0,5.0,92,0.00,,,0.29,0,Wunderground v.1.15,2013-01-18 04:30:00,
2013-01-17 23:35:00,35.1,33.3,30.00,NNE,19,6.0,9.0,93,0.00,,,0.29,0,Wunderground v.1.15,2013-01-18 04:35:00,
2013-01-17 23:40:00,35.3,33.5,30.00,North,5,0.0,9.0,93,0.00,,,0.29,0,Wunderground v.1.15,2013-01-18 04:40:00,
2013-01-17 23:45:00,35.3,33.5,30.00,NNE,24,7.0,10.0,93,0.00,,,0.29,0,Wunderground v.1.15,2013-01-18 04:45:00,
2013-01-17 23:50:00,35.3,33.5,30.00,NNE,24,4.0,8.0,93,0.00,,,0.29,0,Wunderground v.1.15,2013-01-18 04:50:00,
2013-01-17 23:55:00,35.4,33.8,30.00,NNE,26,3.0,9.0,94,0.00,,,0.29,0,Wunderground v.1.15,2013-01-18 04:55:00,